EW4725 Weather Reports


time (UTC)temp
C
wind
direction
speed
KPH
gust
KPH
rain 1hr
cm
rain 24hr
cm
rain mn
cm
humidity
%
barometer
mb
20260509132417 16 125 1.6 1.6 0.00 0.00 0.00 89 1013.5
20260509131916 16 0.0 0.0 0.00 0.00 0.00 89 1013.3
20260509131416 16 125 1.6 3.2 0.00 0.00 0.00 90 1013.3
20260509130916 16 0.0 0.0 0.00 0.00 0.00 90 1013.2
20260509130416 15 125 1.6 4.8 0.00 0.00 0.00 90 1013.2
20260509125916 15 58 1.6 3.2 0.00 0.00 0.00 90 1013.2
20260509125416 15 103 1.6 1.6 0.00 0.00 0.00 90 1013.2
20260509124916 15 103 1.6 3.2 0.00 0.00 0.00 90 1013.2
20260509124416 15 125 3.2 4.8 0.00 0.00 0.00 90 1013.2
20260509123916 15 0.0 1.6 0.00 0.00 0.00 90 1013.1
20260509123416 15 125 1.6 3.2 0.00 0.00 0.00 90 1013.2
20260509122916 15 125 1.6 3.2 0.00 0.00 0.00 90 1013.1
20260509122416 15 0.0 0.0 0.00 0.00 0.00 90 1013.2
20260509121916 15 125 3.2 3.2 0.00 0.00 0.00 90 1013.1
20260509121416 15 148 1.6 3.2 0.00 0.00 0.00 90 1013.2
20260509120916 15 148 4.8 6.4 0.00 0.00 0.00 90 1013.2
20260509120416 15 148 3.2 3.2 0.00 0.00 0.00 90 1013.3
20260509115916 15 0.0 1.6 0.00 0.00 0.00 90 1013.3
20260509115416 15 0.0 0.0 0.00 0.00 0.00 90 1013.3
20260509114916 15 0.0 0.0 0.00 0.00 0.00 90 1013.3
20260509114416 15 125 1.6 3.2 0.00 0.00 0.00 90 1013.3
20260509113916 15 125 3.2 6.4 0.00 0.00 0.00 90 1013.3
20260509113416 15 0.0 0.0 0.00 0.00 0.00 90 1013.3
20260509112936 15 125 4.8 6.4 0.00 0.00 0.00 90 1013.2
20260509112416 15 148 3.2 4.8 0.00 0.00 0.00 90 1013.2
20260509111916 15 125 1.6 3.2 0.00 0.00 0.00 90 1013.2
20260509111436 15 0.0 1.6 0.00 0.00 0.00 90 1013.2
20260509110916 15 103 1.6 3.2 0.00 0.00 0.00 90 1013.2
20260509110416 15 0.0 0.0 0.00 0.00 0.00 90 1013.2
20260509105916 15 148 1.6 1.6 0.00 0.00 0.00 90 1013.2
20260509105436 15 0.0 1.6 0.00 0.00 0.00 91 1013.2
20260509104916 15 148 3.2 4.8 0.00 0.00 0.00 91 1013.3
20260509104416 15 0.0 0.0 0.00 0.00 0.00 91 1013.3
20260509103916 15 148 1.6 3.2 0.00 0.00 0.00 90 1013.4
20260509103416 15 148 3.2 4.8 0.00 0.00 0.00 90 1013.4
20260509102916 15 148 1.6 3.2 0.00 0.00 0.00 90 1013.3
20260509102416 15 125 1.6 3.2 0.00 0.00 0.00 90 1013.3
20260509101916 15 125 3.2 6.4 0.00 0.00 0.00 91 1013.4
20260509101416 15 170 1.6 3.2 0.00 0.00 0.00 91 1013.5
20260509100936 15 0.0 1.6 0.00 0.00 0.00 91 1013.5
20260509100416 15 148 3.2 4.8 0.00 0.00 0.00 90 1013.4
20260509095916 15 125 1.6 3.2 0.00 0.00 0.00 91 1013.5
20260509095436 15 215 3.2 4.8 0.00 0.00 0.00 90 1013.5
20260509094916 15 125 3.2 3.2 0.00 0.00 0.00 90 1013.6
20260509094416 15 125 3.2 4.8 0.00 0.00 0.00 90 1013.6
20260509093916 15 148 3.2 6.4 0.00 0.00 0.00 90 1013.6
20260509093416 15 0.0 1.6 0.00 0.00 0.00 90 1013.7
20260509092916 15 0.0 1.6 0.00 0.00 0.00 90 1013.7
20260509092416 15 148 3.2 4.8 0.00 0.00 0.00 90 1013.7
20260509091916 15 0.0 1.6 0.00 0.00 0.00 90 1013.7
20260509091416 15 148 1.6 3.2 0.00 0.00 0.00 90 1013.7
20260509090916 16 125 6.4 8.0 0.00 0.00 0.00 90 1013.7
20260509090416 16 125 3.2 4.8 0.00 0.00 0.00 90 1013.7
20260509085916 16 125 6.4 8.0 0.00 0.00 0.00 90 1013.7
20260509085416 16 148 4.8 6.4 0.00 0.00 0.00 89 1013.7
20260509084936 16 148 3.2 4.8 0.00 0.00 0.00 89 1013.7
20260509084416 16 148 1.6 3.2 0.00 0.00 0.00 89 1013.8
20260509083916 16 148 6.4 9.7 0.00 0.00 0.00 89 1013.8
20260509083416 16 148 8.0 11.3 0.00 0.00 0.00 89 1013.8
20260509082916 16 170 1.6 3.2 0.00 0.00 0.00 88 1013.9
20260509082416 16 148 4.8 8.0 0.00 0.00 0.00 88 1013.8
20260509081916 16 125 3.2 4.8 0.00 0.00 0.00 88 1013.9
20260509081416 16 125 6.4 9.7 0.00 0.00 0.00 87 1013.9
20260509080936 16 80 3.2 3.2 0.00 0.00 0.00 88 1013.9
20260509080416 16 0.0 3.2 0.00 0.00 0.00 88 1014.0
20260509075916 16 80 1.6 1.6 0.00 0.00 0.00 88 1014.0
20260509075416 16 0.0 0.0 0.00 0.00 0.00 88 1014.0
20260509074916 16 0.0 3.2 0.00 0.00 0.00 88 1014.2
20260509074416 16 148 1.6 4.8 0.00 0.00 0.00 88 1014.2
20260509073915 16 0.0 0.0 0.00 0.00 0.00 88 1014.2
20260509073416 16 0.0 0.0 0.00 0.00 0.00 88 1014.2
20260509072916 16 170 3.2 4.8 0.00 0.00 0.00 88 1014.2
20260509072416 16 0.0 0.0 0.00 0.00 0.00 88 1014.2
20260509071936 16 0.0 1.6 0.00 0.00 0.00 88 1014.2
20260509071415 16 0.0 1.6 0.00 0.00 0.00 88 1014.2
20260509070916 16 125 1.6 4.8 0.00 0.00 0.00 88 1014.2
20260509070416 16 103 1.6 3.2 0.00 0.00 0.00 89 1014.3
20260509065956 16 0.0 0.0 0.00 0.00 0.00 89 1014.3
20260509065416 16 0.0 1.6 0.00 0.00 0.00 89 1014.3
20260509064916 16 0.0 0.0 0.00 0.00 0.00 89 1014.3
20260509064416 16 0.0 0.0 0.00 0.00 0.00 89 1014.4
20260509063936 16 0.0 0.0 0.00 0.00 0.00 89 1014.4
20260509063416 16 283 1.6 1.6 0.00 0.00 0.00 89 1014.5
20260509062916 16 0.0 0.0 0.00 0.00 0.00 89 1014.5
20260509062416 15 0.0 0.0 0.00 0.00 0.00 89 1014.6
20260509061916 15 238 1.6 3.2 0.00 0.00 0.00 89 1014.5
20260509061416 15 260 1.6 1.6 0.00 0.00 0.00 89 1014.5
20260509060916 15 260 1.6 1.6 0.00 0.00 0.00 89 1014.5
20260509060416 15 350 1.6 1.6 0.00 0.00 0.00 89 1014.6
20260509055916 15 260 3.2 4.8 0.00 0.00 0.00 89 1014.6
20260509055416 15 283 1.6 3.2 0.00 0.00 0.00 90 1014.6
20260509054916 15 0.0 1.6 0.00 0.00 0.00 90 1014.6
20260509054416 15 283 3.2 3.2 0.00 0.00 0.00 90 1014.5
20260509053916 15 283 1.6 3.2 0.00 0.00 0.00 90 1014.5
20260509053416 15 283 1.6 1.6 0.00 0.00 0.00 90 1014.5
20260509052916 15 0.0 1.6 0.00 0.00 0.00 90 1014.5
20260509052416 15 283 1.6 3.2 0.00 0.00 0.00 90 1014.5
20260509051916 15 283 1.6 3.2 0.00 0.00 0.00 90 1014.5
20260509051416 15 0.0 1.6 0.00 0.00 0.00 89 1014.5
20260509050916 15 305 1.6 1.6 0.00 0.00 0.00 89 1014.5
20260509050416 15 0.0 1.6 0.00 0.00 0.00 89 1014.4
20260509045936 15 260 3.2 4.8 0.00 0.00 0.00 89 1014.4
20260509045436 15 260 1.6 3.2 0.00 0.00 0.00 89 1014.3
20260509044936 15 260 3.2 4.8 0.00 0.00 0.00 89 1014.4
20260509044436 15 260 3.2 4.8 0.00 0.00 0.00 89 1014.4
20260509043916 15 260 4.8 6.4 0.00 0.00 0.00 89 1014.4
20260509043416 16 260 4.8 6.4 0.00 0.00 0.00 89 1014.4
20260509042916 16 305 4.8 6.4 0.00 0.00 0.00 89 1014.3
20260509042416 16 305 3.2 6.4 0.00 0.00 0.00 89 1014.3
20260509041916 16 305 8.0 11.3 0.00 0.00 0.00 89 1014.2
20260509041416 16 305 4.8 4.8 0.00 0.00 0.00 89 1014.2
20260509040916 16 305 6.4 9.7 0.00 0.00 0.00 89 1014.1
20260509040416 16 283 6.4 8.0 0.00 0.00 0.00 89 1014.1
20260509035916 16 283 3.2 6.4 0.00 0.00 0.00 89 1014.0
20260509035416 16 305 4.8 4.8 0.00 0.00 0.00 89 1013.9
20260509034916 16 305 3.2 6.4 0.00 0.00 0.00 89 1013.9
20260509034416 16 283 4.8 6.4 0.00 0.00 0.00 89 1013.8
20260509033916 16 305 3.2 6.4 0.00 0.00 0.00 89 1013.8
20260509033416 16 283 6.4 9.7 0.00 0.00 0.00 88 1013.8
20260509032916 16 283 3.2 8.0 0.00 0.00 0.00 88 1013.7
20260509032416 16 260 3.2 8.0 0.00 0.00 0.00 88 1013.7
20260509031916 16 260 1.6 6.4 0.00 0.00 0.00 88 1013.7
20260509031416 16 283 4.8 9.7 0.00 0.00 0.00 88 1013.7
20260509030916 16 283 6.4 9.7 0.00 0.00 0.00 88 1013.6
20260509030416 16 305 8.0 9.7 0.00 0.00 0.00 87 1013.5
20260509025916 16 283 4.8 6.4 0.00 0.00 0.00 87 1013.5
20260509025416 16 305 6.4 11.3 0.00 0.00 0.00 87 1013.4
20260509024916 16 283 6.4 8.0 0.00 0.00 0.00 87 1013.4
20260509024416 16 260 9.7 14.5 0.00 0.00 0.00 86 1013.3
20260509023916 16 283 6.4 11.3 0.00 0.00 0.00 86 1013.3
20260509023416 16 260 4.8 8.0 0.00 0.00 0.00 85 1013.3
20260509022936 17 283 6.4 14.5 0.00 0.00 0.00 85 1013.2
20260509022436 17 305 11.3 16.1 0.00 0.00 0.00 85 1013.1
20260509021916 17 283 9.7 14.5 0.00 0.00 0.00 84 1013.2
20260509021416 17 283 8.0 12.9 0.00 0.00 0.00 83 1013.2
20260509020915 17 283 11.3 14.5 0.00 0.00 0.00 82 1013.1
20260509020416 17 260 8.0 9.7 0.00 0.00 0.00 82 1013.1
20260509015915 18 283 9.7 16.1 0.00 0.00 0.00 81 1013.1
20260509015436 18 283 8.0 12.9 0.00 0.00 0.00 81 1013.0
20260509014916 18 305 4.8 8.0 0.00 0.00 0.00 80 1013.0
20260509014416 18 305 6.4 9.7 0.00 0.00 0.00 80 1012.9
20260509013915 18 305 4.8 6.4 0.00 0.00 0.00 80 1013.0
20260509013416 18 283 9.7 16.1 0.00 0.00 0.00 79 1013.0
20260509012916 19 305 11.3 16.1 0.00 0.00 0.00 78 1013.0
20260509012436 19 283 9.7 17.7 0.00 0.00 0.00 78 1013.0
20260509011915 19 283 12.9 17.7 0.00 0.00 0.00 77 1013.1
20260509011416 19 283 9.7 17.7 0.00 0.00 0.00 77 1013.0
20260509010916 20 283 9.7 16.1 0.00 0.00 0.00 77 1013.0
20260509010416 20 305 8.0 11.3 0.00 0.00 0.00 76 1012.9
20260509005936 20 283 9.7 14.5 0.00 0.00 0.00 75 1012.9
20260509005415 20 305 8.0 12.9 0.00 0.00 0.00 74 1013.0
20260509004915 20 260 8.0 12.9 0.00 0.00 0.00 74 1013.0
20260509004415 20 260 11.3 17.7 0.00 0.00 0.00 73 1013.0
20260509003915 21 283 9.7 16.1 0.00 0.00 0.00 72 1013.0
20260509003415 21 283 9.7 12.9 0.00 0.00 0.00 71 1013.0
20260509002915 21 283 8.0 12.9 0.00 0.00 0.00 71 1012.9
20260509002436 21 283 12.9 17.7 0.00 0.00 0.00 71 1012.9
20260509001916 21 283 6.4 9.7 0.00 0.00 0.00 71 1012.9
20260509001415 21 260 12.9 17.7 0.00 0.00 0.00 70 1013.0
20260509000915 21 260 9.7 12.9 0.00 0.00 0.00 70 1013.0
20260509000418 21 305 8.0 14.5 0.00 0.00 0.00 70 1013.0
20260508235915 21 305 6.4 9.7 0.00 0.00 0.00 69 1013.0
20260508235415 22 283 8.0 12.9 0.00 0.00 0.00 69 1013.0
20260508234916 22 260 8.0 11.3 0.00 0.00 0.00 67 1013.0
20260508234415 22 305 6.4 11.3 0.00 0.00 0.00 68 1013.0
20260508233916 22 305 6.4 12.9 0.00 0.00 0.00 67 1013.0
20260508233416 22 283 8.0 14.5 0.00 0.00 0.00 67 1013.0
20260508232916 22 305 6.4 12.9 0.00 0.00 0.00 67 1013.0
20260508232415 22 260 8.0 12.9 0.00 0.00 0.00 66 1013.0
20260508231915 22 283 9.7 11.3 0.00 0.00 0.00 66 1013.1
20260508231416 22 260 11.3 14.5 0.00 0.00 0.00 66 1013.2
20260508230935 22 283 8.0 12.9 0.00 0.00 0.00 66 1013.2
20260508230415 22 283 9.7 14.5 0.00 0.00 0.00 65 1013.3
20260508225916 23 260 6.4 9.7 0.00 0.00 0.00 65 1013.3
20260508225416 23 260 4.8 8.0 0.00 0.00 0.00 65 1013.3
20260508224935 23 148 6.4 11.3 0.00 0.00 0.00 65 1013.3
20260508224416 23 260 9.7 14.5 0.00 0.00 0.00 64 1013.5
20260508223915 23 170 4.8 9.7 0.00 0.00 0.00 64 1013.5
20260508223435 23 80 3.2 6.4 0.00 0.00 0.00 66 1013.6
20260508222915 22 170 8.0 12.9 0.00 0.00 0.00 65 1013.7
20260508222435 22 170 3.2 9.7 0.00 0.00 0.00 65 1013.8
20260508221915 22 170 4.8 8.0 0.00 0.00 0.00 65 1013.8
20260508221415 22 170 3.2 8.0 0.00 0.00 0.00 67 1013.9
20260508220920 22 170 6.4 9.7 0.00 0.00 0.00 66 1014.0
20260508220436 22 193 8.0 12.9 0.00 0.00 0.00 66 1014.1
20260508215915 22 148 6.4 12.9 0.00 0.00 0.00 67 1014.2
20260508215415 22 170 8.0 9.7 0.00 0.00 0.00 66 1014.3
20260508214915 22 148 8.0 14.5 0.00 0.00 0.00 67 1014.3
20260508214415 22 215 6.4 12.9 0.00 0.00 0.00 67 1014.3
20260508213915 22 260 4.8 12.9 0.00 0.00 0.00 67 1014.3
20260508213415 22 148 8.0 9.7 0.00 0.00 0.00 66 1014.4
20260508212915 22 260 4.8 8.0 0.00 0.00 0.00 66 1014.4
20260508212435 22 170 4.8 8.0 0.00 0.00 0.00 66 1014.4
20260508211915 22 238 6.4 11.3 0.00 0.00 0.00 66 1014.4
20260508211415 22 170 6.4 9.7 0.00 0.00 0.00 67 1014.5
20260508210915 22 215 4.8 8.0 0.00 0.00 0.00 67 1014.6
20260508210415 22 238 4.8 8.0 0.00 0.00 0.00 68 1014.6
20260508205915 22 283 8.0 11.3 0.00 0.00 0.00 66 1014.7
20260508205415 22 238 6.4 11.3 0.00 0.00 0.00 68 1014.7
20260508204917 22 148 3.2 8.0 0.00 0.00 0.00 67 1014.7
20260508204435 22 238 6.4 9.7 0.00 0.00 0.00 67 1014.7
20260508203917 22 260 6.4 11.3 0.00 0.00 0.00 68 1014.8
20260508203417 22 148 4.8 8.0 0.00 0.00 0.00 69 1014.9
20260508202917 22 148 4.8 8.0 0.00 0.00 0.00 68 1015.0
20260508202415 22 125 3.2 4.8 0.00 0.00 0.00 68 1015.0
20260508201917 22 238 9.7 17.7 0.00 0.00 0.00 68 1015.0
20260508201417 21 170 3.2 6.4 0.00 0.00 0.00 70 1015.1
20260508200917 21 215 6.4 9.7 0.00 0.00 0.00 71 1015.2
20260508200417 21 148 3.2 4.8 0.00 0.00 0.00 71 1015.3
20260508195917 21 148 6.4 11.3 0.00 0.00 0.00 72 1015.4
20260508195418 21 170 3.2 6.4 0.00 0.00 0.00 72 1015.4
20260508194917 20 35 1.6 3.2 0.00 0.00 0.00 73 1015.4
20260508194417 20 283 6.4 9.7 0.00 0.00 0.00 73 1015.4
20260508193916 20 283 4.8 6.4 0.00 0.00 0.00 74 1015.4
20260508193437 20 260 1.6 3.2 0.00 0.00 0.00 73 1015.5
20260508192917 20 260 8.0 11.3 0.00 0.00 0.00 73 1015.7
20260508192437 20 283 3.2 6.4 0.00 0.00 0.00 75 1015.6
20260508191917 20 260 6.4 9.7 0.00 0.00 0.00 74 1015.7
20260508191417 20 0.0 1.6 0.00 0.00 0.00 75 1015.8
20260508190917 20 58 3.2 3.2 0.00 0.00 0.00 75 1015.7
20260508190417 20 0.0 1.6 0.00 0.00 0.00 76 1015.9
20260508185917 20 260 6.4 9.7 0.00 0.00 0.00 75 1016.0
20260508185417 20 238 3.2 4.8 0.00 0.00 0.00 75 1016.0
20260508184917 20 283 3.2 4.8 0.00 0.00 0.00 76 1016.0
20260508184417 19 283 3.2 4.8 0.00 0.00 0.00 77 1016.1
20260508183937 19 0.0 1.6 0.00 0.00 0.00 78 1016.1
20260508183417 18 58 3.2 4.8 0.00 0.00 0.00 78 1016.2
20260508182917 18 0.0 1.6 0.00 0.00 0.00 79 1016.2
20260508182417 18 148 4.8 6.4 0.00 0.00 0.00 80 1016.2
20260508181917 18 0.0 1.6 0.00 0.00 0.00 80 1016.2
20260508181437 18 260 1.6 3.2 0.00 0.00 0.00 80 1016.2
20260508180917 18 0.0 0.0 0.00 0.00 0.00 81 1016.2
20260508180417 18 125 3.2 6.4 0.00 0.00 0.00 81 1016.2
20260508175917 18 215 3.2 4.8 0.00 0.00 0.00 80 1016.3
20260508175417 18 148 3.2 6.4 0.00 0.00 0.00 81 1016.3
20260508174917 18 0.0 0.0 0.00 0.00 0.00 83 1016.3
20260508174417 17 0.0 0.0 0.00 0.00 0.00 83 1016.4
20260508173917 17 0.0 1.6 0.00 0.00 0.00 83 1016.4
20260508173417 17 283 4.8 8.0 0.00 0.00 0.00 83 1016.5
20260508172917 17 283 1.6 3.2 0.00 0.00 0.00 82 1016.5
20260508172417 17 0.0 3.2 0.00 0.00 0.00 83 1016.6
20260508171937 17 215 1.6 1.6 0.00 0.00 0.00 84 1016.5
20260508171417 17 125 1.6 4.8 0.00 0.00 0.00 83 1016.4
20260508170937 17 238 4.8 8.0 0.00 0.00 0.00 83 1016.4
20260508170417 17 0.0 3.2 0.00 0.00 0.00 84 1016.4
20260508165917 17 148 1.6 3.2 0.00 0.00 0.00 84 1016.4
20260508165417 17 103 1.6 3.2 0.00 0.00 0.00 83 1016.4
20260508164917 17 0.0 0.0 0.00 0.00 0.00 84 1016.4
20260508164417 17 148 3.2 4.8 0.00 0.00 0.00 84 1016.4
20260508163917 17 148 1.6 3.2 0.00 0.00 0.00 85 1016.4
20260508163417 17 0.0 0.0 0.00 0.00 0.00 85 1016.4
20260508162917 17 148 1.6 1.6 0.00 0.00 0.00 86 1016.3
20260508162417 17 125 4.8 6.4 0.00 0.00 0.00 85 1016.4
20260508161917 17 125 3.2 4.8 0.00 0.00 0.00 85 1016.4
20260508161417 17 125 1.6 3.2 0.00 0.00 0.00 86 1016.4
20260508160936 16 0.0 1.6 0.00 0.00 0.00 86 1016.3
20260508160417 16 125 3.2 3.2 0.00 0.00 0.00 86 1016.3
20260508155917 16 0.0 3.2 0.00 0.00 0.00 86 1016.3
20260508155417 16 0.0 1.6 0.00 0.00 0.00 87 1016.3
20260508154917 16 125 4.8 6.4 0.00 0.00 0.00 87 1016.3
20260508154417 16 148 3.2 4.8 0.00 0.00 0.00 86 1016.2
20260508153937 16 125 1.6 1.6 0.00 0.00 0.00 87 1016.2
20260508153417 16 148 4.8 4.8 0.00 0.00 0.00 87 1016.2
20260508152917 16 148 4.8 9.7 0.00 0.00 0.00 87 1016.3
20260508152417 16 125 1.6 4.8 0.00 0.00 0.00 87 1016.3
20260508151917 16 103 4.8 6.4 0.00 0.00 0.00 87 1016.4
20260508151417 16 103 3.2 4.8 0.00 0.00 0.00 87 1016.4
20260508150917 16 125 1.6 4.8 0.00 0.00 0.00 88 1016.4
20260508150417 16 125 1.6 1.6 0.00 0.00 0.00 88 1016.5
20260508145917 16 125 3.2 4.8 0.00 0.00 0.00 88 1016.5
20260508145417 16 125 1.6 1.6 0.00 0.00 0.00 87 1016.5
20260508144957 16 148 3.2 4.8 0.00 0.00 0.00 88 1016.4
20260508144416 16 0.0 0.0 0.00 0.00 0.00 88 1016.5
20260508143917 16 103 1.6 3.2 0.00 0.00 0.00 88 1016.5
20260508143416 16 125 3.2 4.8 0.00 0.00 0.00 88 1016.4
20260508142916 16 125 1.6 3.2 0.00 0.00 0.00 89 1016.4
20260508142417 16 125 4.8 4.8 0.00 0.00 0.00 88 1016.4
20260508141916 16 125 1.6 3.2 0.00 0.00 0.00 89 1016.4
20260508141416 16 125 3.2 4.8 0.00 0.00 0.00 88 1016.3
20260508140917 16 148 4.8 8.0 0.00 0.00 0.00 89 1016.2
20260508140417 16 148 4.8 6.4 0.00 0.00 0.00 88 1016.2
20260508135916 16 148 3.2 4.8 0.00 0.00 0.00 89 1016.1
20260508135416 16 125 1.6 4.8 0.00 0.00 0.00 88 1016.2
20260508134916 16 125 3.2 4.8 0.00 0.00 0.00 89 1016.2
20260508134416 16 58 3.2 4.8 0.00 0.00 0.00 89 1016.1
20260508133916 16 148 1.6 3.2 0.00 0.00 0.00 89 1016.1
20260508133436 16 125 3.2 4.8 0.00 0.00 0.00 89 1016.2
20260508132936 16 0.0 0.0 0.00 0.00 0.00 89 1016.2